Flag for Norway Weather past 2 weeks in Rygge, Norway

Now
43 °F

Clear.


Feels Like: 43 °F
Forecast: 39 / 58 °F
Wind: No wind

Location: Rygge

Current Time: Apr 22, 2015 at 12:05:23 AM

Latest Report: Apr 21, 2015 at 11:00 PM


Visibility: 25 mi

Pressure: 30.22 "Hg

Humidity: 65%

Dew point: 32 °F

Location of RyggeLocation

Historic Weather in Rygge — Graph

°F

Rygge temperature yesterday

Maximum temperature yesterday: 60 °F (at 3:00 PM)
Minimum temperature yesterday: 40 °F (at 6:00 AM)
Average temperature yesterday: 52 °F

Past Weeks' High & Low Weather Summary

 TemperatureHumidityPressure
High67 °F (Apr 20, 1:00 PM)100% (Apr 10, 10:00 PM)30.47 "Hg (Apr 10, 10:00 PM)
Low31 °F (Apr 14, 4:00 AM)21% (Apr 8, 5:00 PM)29.47 "Hg (Apr 15, 4:00 PM)
Average47 °F61%30.04 "Hg
* Reported Apr 6 10:00 PM — Apr 21 10:00 PM, Rygge, Weather by CustomWeather, © 2015

Note: Actual official high and low records may vary slightly from our data, if they occured in-between our weather recording intervals... More about our weather records

Advertising

Rygge weather history for previous 24 hours

 ConditionsComfort  
Time TempWeatherWind HumidityBarometerVisibility
10:00 PM
Tue, Apr 21
46 °FClear.No wind57%30.21 "Hg28 mi
9:00 PM48 °FCool.No wind51%30.19 "Hg31 mi
8:00 PM52 °FSunny.2 mph43%30.18 "Hg31 mi
7:00 PM53 °FSunny.5 mph43%30.18 "Hg25 mi
6:00 PM56 °FSunny.5 mph39%30.19 "Hg25 mi
5:00 PM57 °FSunny.7 mph39%30.20 "Hg25 mi
4:00 PM58 °FSunny.6 mph42%30.21 "Hg22 mi
3:00 PM60 °FSunny.3 mph36%30.22 "Hg22 mi
2:00 PM58 °FSunny.2 mph40%30.25 "Hg22 mi
1:00 PM54 °FSunny.5 mph43%30.28 "Hg22 mi
12:00 PM52 °FSunny.6 mph44%30.31 "Hg25 mi
11:00 AM53 °FSunny.2 mph44%30.32 "Hg25 mi
10:00 AM50 °FSunny.2 mph46%30.33 "Hg25 mi
9:00 AM48 °FSunny.5 mph49%30.34 "Hg22 mi
8:00 AM48 °FCool.3 mph48%30.34 "HgN/A
6:00 AM40 °FSunny.3 mph58%30.30 "Hg31 mi
5:00 AM46 °FClear.3 mph46%30.29 "Hg31 mi
4:00 AM51 °FClear.6 mph38%30.27 "Hg31 mi
3:00 AM52 °FClear.6 mph35%30.27 "Hg31 mi
2:00 AM52 °FClear.5 mph36%30.25 "Hg31 mi
1:00 AM54 °FClear.6 mph35%30.25 "Hg31 mi
12:00 AM53 °FClear.3 mph40%30.24 "Hg28 mi
Weather by CustomWeather, © 2015

See weather overviewHow to use our weather pages